Location: Apeadero de Los Molinos-Guadarrama
(40.7091°N, 4.0689°W)
Time: 06:10:13
(UTC+00:00)

Tiangong - Pass Details

Date: 01 October 2021
Orbit: 382 x 385 km, 41.5° (Epoch: 16 October)

Event Time Altitude Azimuth Distance (km) Brightness Sun altitude
Exits shadow 05:22:13 16° 276° (W) 1,092 2.7 -10.4°
Maximum altitude 05:24:36 74° 0° (N) 399 1.1 -10.0°
Drops below altitude 10° 05:27:44 10° 87° (E) 1,396 5.6 -9.4°
Sets 05:29:49 0° 89° (E) 2,248 7.4 -9.0°
